Find Starlink 38086

NORAD ID: 69998 Int'l Des: 2026-159 Owner: SPXS Country: US Constellation: starlink operational
LEOCIRCULARRETROGRADE

現在のビュー

3D地球を読み込み中...

About Starlink 38086

Starlink 38086 (NORAD 69998) is a starlink constellation satellite (v2 mini) launched Jul 11, 2026 by SPXS of US. It operates in LEO, CIRCULAR, RETROGRADE orbit with a mass of 575.00 kg.

次回通過

Passes for default location (London). Set your location on the main map for personalized predictions.

高度履歴

Loading altitude history...

軌道要素

1 69998U 26159Z 26237.30511146 .00139137 00000-0 91707-3 0 9996
2 69998 97.2852 78.1386 0001529 73.0108 287.1324 15.75227983 8346
Epoch: Aug 25, 2026 • Age: 23 hours

現在のステータス

高度 353.3 km
遠地点 / 近地点 N/A
速度 7.70 km/s
衛星直下点 62.56°N, 161.45°W
打ち上げ日 Jul 11, 2026
運用期間 0.1 years
タイプ internet

技術仕様

分類 Payload
質量 575.00 kg
乾燥質量 530.00 kg
総質量 575.00 kg
長さ 0.30 m
直径 4.10 m
スパン 29.00 m
形状 Box + pan
製造者 SPXS
バスタイプ Starlink V2MO
フェーズステータス In Orbit
所有者/国 SPXS/US

Most Searched